CFG4NE EDDF-LKPR

Flight info

Callsign CFG4NE
Flight time 0h 58m
Altitude 29000
Route SULUS7S/18 SULUS Z650 TONSU Z35 ODOMO DCT LOMKI
Aircraft A321/M-SDE2E3FGHIJ1RWXYZ/LB1

Departure

Time 2026-05-04 17:47
Airport Frankfurt Main Airport (EDDF)

Arrival

Time 2026-05-04 18:45
Airport Václav Havel Airport Prague (LKPR)
Time Latitude Longitude Altitude Speed Heading
2026-05-04 17:00 50.04830 8.58836 365 ft 0 kts 339°
2026-05-04 17:29 50.04807 8.58850 368 ft 4 kts 339°
2026-05-04 17:29 50.04757 8.58879 368 ft 0 kts 339°
2026-05-04 17:33 50.04757 8.58878 368 ft 0 kts 336°
2026-05-04 17:33 50.04758 8.58878 368 ft 1 kts 335°
2026-05-04 17:34 50.04790 8.59032 371 ft 6 kts 70°
2026-05-04 17:34 50.04806 8.59098 371 ft 6 kts 70°
2026-05-04 17:35 50.04854 8.59300 369 ft 7 kts 70°
2026-05-04 17:35 50.04867 8.59427 371 ft 5 kts 102°
2026-05-04 17:35 50.04851 8.59471 371 ft 4 kts 129°
2026-05-04 17:36 50.04823 8.59511 370 ft 9 kts 140°
2026-05-04 17:36 50.04744 8.59586 374 ft 13 kts 159°
2026-05-04 17:36 50.04658 8.59613 375 ft 12 kts 175°
2026-05-04 17:36 50.04577 8.59620 376 ft 11 kts 177°
2026-05-04 17:37 50.04502 8.59624 376 ft 11 kts 178°
2026-05-04 17:37 50.04429 8.59627 376 ft 10 kts 178°
2026-05-04 17:37 50.04358 8.59631 376 ft 10 kts 178°
2026-05-04 17:37 50.04288 8.59635 376 ft 10 kts 178°
2026-05-04 17:38 50.04197 8.59626 375 ft 16 kts 190°
2026-05-04 17:38 50.04099 8.59581 375 ft 12 kts 200°
2026-05-04 17:38 50.04019 8.59525 375 ft 13 kts 209°
2026-05-04 17:38 50.03941 8.59432 371 ft 16 kts 225°
2026-05-04 17:39 50.03831 8.59115 370 ft 16 kts 250°
2026-05-04 17:39 50.03795 8.58959 368 ft 18 kts 250°
2026-05-04 17:39 50.03748 8.58760 364 ft 21 kts 250°
2026-05-04 17:40 50.03695 8.58540 359 ft 22 kts 250°
2026-05-04 17:40 50.03639 8.58308 361 ft 22 kts 250°
2026-05-04 17:40 50.03587 8.58087 366 ft 21 kts 251°
2026-05-04 17:40 50.03533 8.57866 364 ft 22 kts 250°
2026-05-04 17:41 50.03478 8.57630 359 ft 24 kts 250°
2026-05-04 17:41 50.03418 8.57379 358 ft 25 kts 249°
2026-05-04 17:41 50.03355 8.57118 358 ft 27 kts 250°
2026-05-04 17:41 50.03296 8.56874 355 ft 23 kts 251°
2026-05-04 17:42 50.03239 8.56623 355 ft 26 kts 248°
2026-05-04 17:42 50.03172 8.56365 351 ft 26 kts 250°
2026-05-04 17:42 50.03110 8.56092 350 ft 28 kts 251°
2026-05-04 17:42 50.03044 8.55807 353 ft 28 kts 249°
2026-05-04 17:43 50.02974 8.55519 347 ft 29 kts 250°
2026-05-04 17:43 50.02904 8.55239 348 ft 27 kts 249°
2026-05-04 17:43 50.02838 8.54964 347 ft 27 kts 249°
2026-05-04 17:43 50.02774 8.54694 344 ft 26 kts 250°
2026-05-04 17:44 50.02711 8.54423 339 ft 27 kts 250°
2026-05-04 17:44 50.02651 8.54146 336 ft 28 kts 252°
2026-05-04 17:44 50.02590 8.53879 333 ft 27 kts 250°
2026-05-04 17:44 50.02527 8.53605 336 ft 27 kts 250°
2026-05-04 17:45 50.02462 8.53339 334 ft 27 kts 249°
2026-05-04 17:45 50.02398 8.53075 335 ft 25 kts 250°
2026-05-04 17:45 50.02343 8.52845 331 ft 17 kts 248°
2026-05-04 17:45 50.02307 8.52700 334 ft 11 kts 256°
2026-05-04 17:46 50.02265 8.52612 332 ft 14 kts 195°
2026-05-04 17:46 50.01948 8.52606 332 ft 88 kts 180°
2026-05-04 17:46 50.01094 8.52598 362 ft 152 kts 181°
2026-05-04 17:46 50.00002 8.52601 948 ft 157 kts 180°
2026-05-04 17:47 49.98916 8.52619 1631 ft 158 kts 180°
2026-05-04 17:47 49.97751 8.52692 2012 ft 178 kts 170°
2026-05-04 17:47 49.96560 8.53521 2233 ft 200 kts 140°
2026-05-04 17:47 49.95676 8.55297 2392 ft 219 kts 118°
2026-05-04 17:48 49.94914 8.57447 2635 ft 234 kts 118°
2026-05-04 17:48 49.94221 8.59732 3317 ft 234 kts 106°
2026-05-04 17:48 49.93978 8.62293 3706 ft 253 kts 94°
2026-05-04 17:48 49.93868 8.65109 4129 ft 265 kts 94°
2026-05-04 17:49 49.93616 8.67946 4720 ft 268 kts 109°
2026-05-04 17:49 49.92716 8.70459 5316 ft 268 kts 133°
2026-05-04 17:49 49.91286 8.72294 5947 ft 267 kts 146°
2026-05-04 17:49 49.89770 8.73957 6581 ft 268 kts 146°
2026-05-04 17:50 49.88397 8.75930 7139 ft 273 kts 132°
2026-05-04 17:50 49.87366 8.78422 7688 ft 277 kts 122°
2026-05-04 17:50 49.86429 8.81050 8220 ft 280 kts 122°
2026-05-04 17:50 49.85477 8.83700 8764 ft 282 kts 122°
2026-05-04 17:51 49.84513 8.86364 9274 ft 285 kts 123°
2026-05-04 17:51 49.83493 8.89163 9802 ft 288 kts 123°
2026-05-04 17:51 49.82537 8.91787 10102 ft 297 kts 123°
2026-05-04 17:51 49.81508 8.94601 10213 ft 310 kts 123°
2026-05-04 17:52 49.80432 8.97550 10344 ft 320 kts 123°
2026-05-04 17:52 49.79324 9.00589 10513 ft 326 kts 122°
2026-05-04 17:52 49.78203 9.03665 10764 ft 329 kts 122°
2026-05-04 17:52 49.77081 9.06744 10930 ft 320 kts 122°
2026-05-04 17:53 49.76187 9.09737 10964 ft 300 kts 113°
2026-05-04 17:53 49.75618 9.12885 10988 ft 299 kts 107°
2026-05-04 17:53 49.75113 9.16049 10991 ft 326 kts 107°
2026-05-04 17:53 49.74537 9.19595 10988 ft 347 kts 107°
2026-05-04 17:54 49.73943 9.23257 11363 ft 355 kts 107°
2026-05-04 17:54 49.73341 9.26975 12236 ft 358 kts 107°
2026-05-04 17:54 49.72730 9.30750 13061 ft 363 kts 107°
2026-05-04 17:54 49.72113 9.34545 13857 ft 368 kts 107°
2026-05-04 17:55 49.71487 9.38396 14562 ft 372 kts 106°
2026-05-04 17:55 49.70848 9.42306 15285 ft 376 kts 106°
2026-05-04 17:55 49.70203 9.46248 15995 ft 380 kts 107°
2026-05-04 17:55 49.69552 9.50209 16676 ft 383 kts 106°
2026-05-04 17:56 49.68887 9.54231 17325 ft 388 kts 106°
2026-05-04 17:56 49.68217 9.58289 17978 ft 393 kts 106°
2026-05-04 17:56 49.67579 9.62412 18569 ft 398 kts 102°
2026-05-04 17:56 49.67343 9.66699 19115 ft 404 kts 91°
2026-05-04 17:57 49.67627 9.71033 19653 ft 409 kts 80°
2026-05-04 17:57 49.68346 9.75303 20170 ft 412 kts 76°
2026-05-04 17:57 49.69111 9.79582 20696 ft 415 kts 76°
2026-05-04 17:57 49.69872 9.83901 21209 ft 418 kts 76°
2026-05-04 17:58 49.70634 9.88262 21727 ft 421 kts 76°
2026-05-04 17:58 49.71488 9.92589 22225 ft 425 kts 70°
2026-05-04 17:58 49.72778 9.96729 22735 ft 430 kts 60°
2026-05-04 17:58 49.74465 10.00561 23213 ft 434 kts 54°
2026-05-04 17:59 49.76233 10.04357 23699 ft 437 kts 54°
2026-05-04 17:59 49.77999 10.08154 24080 ft 442 kts 54°
2026-05-04 17:59 49.81607 10.15948 24911 ft 449 kts 54°
2026-05-04 18:00 49.83424 10.19900 25328 ft 452 kts 55°
2026-05-04 18:00 49.85250 10.23887 25746 ft 456 kts 55°
2026-05-04 18:00 49.86493 10.26607 26024 ft 458 kts 55°
2026-05-04 18:00 49.88339 10.30646 26417 ft 461 kts 55°
2026-05-04 18:01 49.90812 10.36058 26967 ft 466 kts 55°
2026-05-04 18:01 49.92688 10.40167 27381 ft 469 kts 55°
2026-05-04 18:01 49.93964 10.42966 27658 ft 471 kts 55°
2026-05-04 18:02 49.97774 10.51339 28463 ft 477 kts 55°
2026-05-04 18:02 49.99692 10.55568 28842 ft 480 kts 54°
2026-05-04 18:02 50.01615 10.59818 28958 ft 478 kts 54°
2026-05-04 18:02 50.03428 10.64087 28871 ft 469 kts 60°
2026-05-04 18:03 50.04786 10.68651 28594 ft 465 kts 72°
2026-05-04 18:03 50.05441 10.73550 28323 ft 461 kts 88°
2026-05-04 18:03 50.05339 10.78494 28056 ft 457 kts 98°
2026-05-04 18:03 50.05007 10.83423 27777 ft 458 kts 98°
2026-05-04 18:04 50.04656 10.88344 27525 ft 458 kts 99°
2026-05-04 18:04 50.04294 10.93209 27266 ft 458 kts 99°
2026-05-04 18:04 50.03548 11.03032 26931 ft 457 kts 99°
2026-05-04 18:05 50.03177 11.07953 26972 ft 458 kts 99°
2026-05-04 18:05 50.02808 11.12884 26964 ft 459 kts 99°
2026-05-04 18:05 50.02438 11.17807 26968 ft 459 kts 99°
2026-05-04 18:05 50.02065 11.22741 26967 ft 459 kts 99°
2026-05-04 18:06 50.01342 11.32588 26965 ft 459 kts 98°
2026-05-04 18:06 50.01002 11.37514 26970 ft 459 kts 98°
2026-05-04 18:06 50.00667 11.42429 26972 ft 459 kts 98°
2026-05-04 18:07 50.00324 11.47377 26958 ft 459 kts 98°
2026-05-04 18:07 49.99976 11.52299 26970 ft 459 kts 98°
2026-05-04 18:07 49.99621 11.57220 26970 ft 458 kts 98°
2026-05-04 18:07 49.99264 11.62121 26971 ft 459 kts 98°
2026-05-04 18:08 49.98904 11.67065 26972 ft 459 kts 98°
2026-05-04 18:08 49.98543 11.71995 26971 ft 458 kts 98°
2026-05-04 18:08 49.98178 11.76903 26972 ft 459 kts 98°
2026-05-04 18:08 49.97806 11.81835 26972 ft 458 kts 98°
2026-05-04 18:09 49.97057 11.91666 26962 ft 458 kts 98°
2026-05-04 18:09 49.96308 12.01486 26969 ft 457 kts 98°
2026-05-04 18:10 49.95934 12.06380 26970 ft 457 kts 98°
2026-05-04 18:10 49.95556 12.11270 26864 ft 458 kts 98°
2026-05-04 18:10 49.95174 12.16176 26599 ft 457 kts 98°
2026-05-04 18:10 49.94789 12.21086 26343 ft 457 kts 98°
2026-05-04 18:11 49.94400 12.25998 26089 ft 456 kts 98°
2026-05-04 18:11 49.94013 12.30843 25470 ft 450 kts 98°
2026-05-04 18:11 49.93646 12.35634 25094 ft 447 kts 97°
2026-05-04 18:11 49.93396 12.40441 24937 ft 447 kts 94°
2026-05-04 18:12 49.93254 12.45283 24967 ft 448 kts 93°
2026-05-04 18:12 49.93170 12.50119 24969 ft 448 kts 92°
2026-05-04 18:12 49.93098 12.54924 24583 ft 443 kts 92°
2026-05-04 18:12 49.93012 12.59697 23895 ft 439 kts 93°
2026-05-04 18:13 49.92901 12.64401 23145 ft 434 kts 93°
2026-05-04 18:13 49.92766 12.69067 22352 ft 429 kts 94°
2026-05-04 18:13 49.92467 12.78201 20815 ft 418 kts 95°
2026-05-04 18:14 49.92317 12.82675 20053 ft 413 kts 95°
2026-05-04 18:14 49.92170 12.87103 19305 ft 408 kts 95°
2026-05-04 18:14 49.92027 12.91481 18614 ft 404 kts 95°
2026-05-04 18:15 49.91750 13.00086 17241 ft 395 kts 95°
2026-05-04 18:15 49.91468 13.08582 16959 ft 394 kts 95°
2026-05-04 18:15 49.91327 13.12842 16958 ft 395 kts 95°
2026-05-04 18:16 49.91356 13.17100 16730 ft 391 kts 90°
2026-05-04 18:16 49.91468 13.21297 16018 ft 388 kts 89°
2026-05-04 18:16 49.91616 13.25422 15363 ft 385 kts 89°
2026-05-04 18:17 49.91946 13.33689 14095 ft 378 kts 90°
2026-05-04 18:17 49.92097 13.37732 13455 ft 374 kts 90°
2026-05-04 18:17 49.92367 13.45722 12139 ft 367 kts 90°
2026-05-04 18:18 49.92493 13.49669 11490 ft 363 kts 90°
2026-05-04 18:18 49.92615 13.53566 10864 ft 360 kts 89°
2026-05-04 18:18 49.92736 13.57430 10236 ft 357 kts 89°
2026-05-04 18:18 49.92854 13.61247 9803 ft 348 kts 89°
2026-05-04 18:19 49.93073 13.68358 9529 ft 313 kts 89°
2026-05-04 18:19 49.93175 13.71661 9293 ft 301 kts 89°
2026-05-04 18:19 49.93272 13.74881 8986 ft 296 kts 89°
2026-05-04 18:20 49.93363 13.78082 8957 ft 298 kts 89°
2026-05-04 18:20 49.93455 13.81302 8961 ft 299 kts 89°
2026-05-04 18:20 49.93549 13.84528 8960 ft 299 kts 89°
2026-05-04 18:20 49.93643 13.87754 8974 ft 299 kts 89°
2026-05-04 18:21 49.93737 13.90982 8965 ft 299 kts 89°
2026-05-04 18:21 49.93827 13.94192 8960 ft 299 kts 89°
2026-05-04 18:21 49.93887 13.96334 8973 ft 299 kts 89°
2026-05-04 18:21 49.93992 13.99946 8973 ft 299 kts 89°
2026-05-04 18:22 49.94082 14.03169 8958 ft 299 kts 89°
2026-05-04 18:22 49.94169 14.06391 8950 ft 299 kts 89°
2026-05-04 18:22 49.94254 14.09621 8960 ft 299 kts 89°
2026-05-04 18:22 49.94337 14.12884 8955 ft 299 kts 89°
2026-05-04 18:23 49.94417 14.16115 8949 ft 299 kts 89°
2026-05-04 18:23 49.94498 14.19296 8948 ft 299 kts 89°
2026-05-04 18:23 49.94583 14.22520 8960 ft 299 kts 89°
2026-05-04 18:23 49.94667 14.25747 8961 ft 299 kts 89°
2026-05-04 18:24 49.94738 14.28979 8957 ft 299 kts 92°
2026-05-04 18:24 49.94444 14.32155 8956 ft 297 kts 104°
2026-05-04 18:24 49.93984 14.35283 8945 ft 297 kts 105°
2026-05-04 18:24 49.93509 14.38400 8908 ft 295 kts 105°
2026-05-04 18:25 49.93035 14.41487 8461 ft 293 kts 105°
2026-05-04 18:25 49.92562 14.44544 8006 ft 290 kts 105°
2026-05-04 18:25 49.92088 14.47569 7577 ft 287 kts 105°
2026-05-04 18:25 49.91621 14.50527 7403 ft 275 kts 105°
2026-05-04 18:26 49.91473 14.53371 7267 ft 257 kts 80°
2026-05-04 18:26 49.92136 14.55805 6842 ft 244 kts 49°
2026-05-04 18:26 49.93537 14.57148 6225 ft 236 kts
2026-05-04 18:26 49.95091 14.56789 5684 ft 226 kts 327°
2026-05-04 18:27 49.96123 14.55004 5377 ft 221 kts 300°
2026-05-04 18:27 49.96976 14.53027 5096 ft 220 kts 304°
2026-05-04 18:27 49.97875 14.51144 4824 ft 213 kts 305°
2026-05-04 18:27 49.98760 14.49332 4533 ft 202 kts 306°
2026-05-04 18:28 49.99588 14.47635 4271 ft 193 kts 306°
2026-05-04 18:28 50.00374 14.46024 4023 ft 187 kts 306°
2026-05-04 18:28 50.01138 14.44456 3794 ft 177 kts 306°
2026-05-04 18:28 50.01862 14.42969 3549 ft 168 kts 306°
2026-05-04 18:29 50.02555 14.41546 3349 ft 162 kts 307°
2026-05-04 18:29 50.03225 14.40168 3139 ft 158 kts 307°
2026-05-04 18:29 50.03882 14.38816 2920 ft 155 kts 307°
2026-05-04 18:29 50.04515 14.37512 2726 ft 147 kts 307°
2026-05-04 18:30 50.05723 14.35025 2350 ft 142 kts 308°
2026-05-04 18:30 50.06313 14.33805 2163 ft 141 kts 307°
2026-05-04 18:30 50.06894 14.32580 2036 ft 140 kts 309°
2026-05-04 18:31 50.07491 14.31385 1818 ft 139 kts 309°
2026-05-04 18:31 50.08071 14.30181 1583 ft 136 kts 308°
2026-05-04 18:31 50.08640 14.29005 1424 ft 137 kts 308°
2026-05-04 18:31 50.09209 14.27828 1263 ft 135 kts 308°
2026-05-04 18:32 50.09751 14.26726 1262 ft 130 kts 309°
2026-05-04 18:32 50.10391 14.25375 1768 ft 175 kts 305°
2026-05-04 18:32 50.11095 14.23689 2569 ft 189 kts 304°
2026-05-04 18:32 50.11872 14.21919 2969 ft 207 kts 307°
2026-05-04 18:33 50.13019 14.20547 3448 ft 214 kts 341°
2026-05-04 18:33 50.14494 14.20438 3913 ft 217 kts 14°
2026-05-04 18:33 50.15764 14.21595 3993 ft 212 kts 49°
2026-05-04 18:33 50.16375 14.23637 4012 ft 209 kts 79°
2026-05-04 18:34 50.16575 14.25878 4011 ft 210 kts 84°
2026-05-04 18:34 50.16731 14.28277 3990 ft 230 kts 85°
2026-05-04 18:34 50.16887 14.30777 4013 ft 233 kts 85°
2026-05-04 18:34 50.17039 14.33298 4018 ft 233 kts 87°
2026-05-04 18:35 50.16796 14.35749 4013 ft 231 kts 116°
2026-05-04 18:35 50.15976 14.37906 4020 ft 232 kts 124°
2026-05-04 18:35 50.15068 14.39984 4019 ft 231 kts 125°
2026-05-04 18:35 50.14153 14.42052 4019 ft 232 kts 125°
2026-05-04 18:36 50.13238 14.44110 4007 ft 231 kts 125°
2026-05-04 18:36 50.12325 14.46174 4007 ft 231 kts 125°
2026-05-04 18:36 50.11407 14.48242 4008 ft 232 kts 125°
2026-05-04 18:36 50.10490 14.50312 4007 ft 232 kts 125°
2026-05-04 18:37 50.09573 14.52378 4008 ft 232 kts 125°
2026-05-04 18:37 50.08657 14.54444 4008 ft 232 kts 125°
2026-05-04 18:37 50.07744 14.56498 4008 ft 232 kts 125°
2026-05-04 18:37 50.06825 14.58568 4008 ft 232 kts 125°
2026-05-04 18:38 50.05906 14.60635 4007 ft 232 kts 125°
2026-05-04 18:38 50.04989 14.62693 4008 ft 232 kts 126°
2026-05-04 18:38 50.03809 14.64362 4006 ft 231 kts 155°
2026-05-04 18:38 50.02789 14.64805 4009 ft 231 kts 175°
2026-05-04 18:39 50.01182 14.64739 4010 ft 232 kts 184°
2026-05-04 18:39 49.99578 14.64504 4010 ft 232 kts 185°
2026-05-04 18:39 49.98016 14.63960 4006 ft 232 kts 206°
2026-05-04 18:39 49.96501 14.61638 4010 ft 235 kts 238°
2026-05-04 18:40 49.96041 14.60074 4011 ft 237 kts 252°
2026-05-04 18:40 49.95815 14.57539 4009 ft 239 kts 272°
2026-05-04 18:40 49.96167 14.55024 4009 ft 239 kts 292°
2026-05-04 18:40 49.97010 14.52908 4006 ft 224 kts 307°
2026-05-04 18:41 49.97909 14.51078 4020 ft 207 kts 307°
2026-05-04 18:41 49.98762 14.49333 4009 ft 199 kts 306°
2026-05-04 18:41 49.99591 14.47632 4009 ft 197 kts 306°
2026-05-04 18:41 50.00387 14.46000 3951 ft 182 kts 306°
2026-05-04 18:42 50.01134 14.44465 3767 ft 176 kts 307°
2026-05-04 18:42 50.01878 14.42938 3547 ft 173 kts 307°
2026-05-04 18:42 50.02588 14.41477 3338 ft 170 kts 307°
2026-05-04 18:42 50.03298 14.40017 3117 ft 169 kts 307°
2026-05-04 18:43 50.04004 14.38564 2891 ft 168 kts 308°
2026-05-04 18:43 50.04707 14.37118 2688 ft 164 kts 307°
2026-05-04 18:43 50.05383 14.35726 2466 ft 159 kts 308°
2026-05-04 18:43 50.06042 14.34368 2255 ft 155 kts 308°
2026-05-04 18:44 50.06677 14.33058 2050 ft 147 kts 308°
2026-05-04 18:44 50.07078 14.32230 1925 ft 143 kts 309°
2026-05-04 18:44 50.07853 14.30595 1684 ft 138 kts 309°
2026-05-04 18:44 50.08427 14.29413 1501 ft 136 kts 309°
2026-05-04 18:45 50.08999 14.28242 1307 ft 135 kts 309°
2026-05-04 18:45 50.09551 14.27113 1218 ft 125 kts 308°
2026-05-04 18:45 50.09925 14.26361 1206 ft 47 kts 305°
2026-05-04 18:45 50.10104 14.25976 1191 ft 41 kts 304°
2026-05-04 18:46 50.10225 14.25749 1189 ft 19 kts 326°
2026-05-04 18:46 50.10341 14.25666 1187 ft 16 kts 345°
2026-05-04 18:46 50.10446 14.25668 1186 ft 14 kts 20°
2026-05-04 18:46 50.10494 14.25783 1186 ft 13 kts 77°
2026-05-04 18:47 50.10512 14.25927 1184 ft 13 kts 80°
2026-05-04 18:47 50.10528 14.26074 1177 ft 16 kts 80°
2026-05-04 18:47 50.10537 14.26203 1177 ft 9 kts 99°
2026-05-04 18:47 50.10514 14.26272 1174 ft 6 kts 106°
2026-05-04 18:48 50.10529 14.26313 1175 ft 5 kts 41°
2026-05-04 18:48 50.10555 14.26340 1173 ft 4 kts 32°
2026-05-04 18:48 50.10562 14.26347 1178 ft 0 kts 33°